Jorge Wilsterman International Airport
SLCB : now visible

Airfield :











YOU CAN JOIN US ON...

 
LOGIN :

Register | Disclaimer

   EN    FR    IT 

 









Legend :    VFR   Marginal VFR   IFR   Intensive IFR   Very Intensive IFR
Visi :
Ceiling :
>= 8 km
>= 3000ft
5 to 8 km
1000 to 3000 ft
1500m to 5 km
500 to 1000 ft
800 to 1500m
200 to 500 ft
< 800m
< 200 ft
Symbols :   Thunderstorms  Fog  Heavy snow  Heavy precipitations  Wind > 20 kt






- Airport Elevation : 8360 ft
- IATA code : CBB


SLCB - Jorge Wilsterman International

CURRENT METAR :
  • 202100Z 24003KT 9999 SCT020 FEW030CB OVC070 17/12 Q1025

EXPIRED METARs :
  • 202000Z 35003KT 9000 -RA FEW010 SCT020 OVC070 16/13 Q1025
  • 201900Z 35003KT 9000 -RA SCT010 SCT020 FEW030CB OVC070 15/14 Q1026

TAF TAF SLCB
Valid from the 20 at 18:00 until the 21 at 18:00 UTC


201655Z 2018/2118 23010KT 8000 RA SCT005 SCT023 OVC070 TX17/2019Z TN16/2111Z
BECMG 2020/2022 00000KT 9999 NSW SCT025 OVC070
TEMPO 2103/2105 8000 RA
BECMG 2114/2116 30010KT SCT027 BKN080



MET'MAP, your aeronautical weather chart ! - Copyright ORBIFLY December 2007 - Disclaimer

ORBIFLY MET'MAP TEAM :

Programming & Development : Alexandra Zaïnal
Concept & original design : Baudouin d'Aumeries
Assistance for programming : Marc-Olivier Méhu
Technical & hardware support : Manuel Goepfert

Contact : metmap@orbifly.com




SOURCES & CREDITS :

   NOAA       Earth
Advisory